www.pogodaiklimat.ru
ПОГОДА в Эрдэнэмандале
Время
(UTC), дата
21 8.08
00 9.08
03 9.08
06 9.08
09 9.08
12 9.08
15 9.08
18 9.08
21 9.08
00 10.08
03 10.08
06 10.08
09 10.08
12 10.08
15 10.08
18 10.08
21 10.08
00 11.08
03 11.08
06 11.08
09 11.08
12 11.08
15 11.08
18 11.08
21 11.08
00 12.08
03 12.08
06 12.08
09 12.08
12 12.08
15 12.08
18 12.08
21 12.08
00 13.08
03 13.08
06 13.08
09 13.08
12 13.08
15 13.08
18 13.08
21 13.08
00 14.08
03 14.08
06 14.08
09 14.08
12 14.08
15 14.08
18 14.08
21 14.08
00 15.08
03 15.08
06 15.08
09 15.08
12 15.08
15 15.08
18 15.08
Ветер
(напр.,м/с)
Видим. Явления Облачность Т
(С)
Тd
(С)
f
(%)
Тe
(С)
Тes
(С)
Комфортность P
(гПа)
Po
(гПа)
Тmin
(С)
Tmax
(С)
R
(мм)
R24
(мм)
S
(см)
С 7 50 км 8/8 600 м
[Sc]
+12.4 +7.9 74 +10 +10 1007.0 841.0
С 7 50 км {дождь} 9/9 600 м
[Sc]
+12.2 +8.7 79 +9 +9 1008.4 842.1 +11.2 0.4
СВ 6 20 км осадки на расстоянии 9/6 1000 м
[Cu med, cong Ci]
+15.7 +7.3 57 +14 +16 1006.2 842.1
С 2 20 км дым 8/5 1000 м
[Cu med, cong Cs]
+17.6 +6.0 46 +18 +25 1004.7 841.8
С 1 20 км дым {мгла} 8/3 1000 м
[Cu med, cong Ci ing]
+18.4 +6.1 44 +20 +24 1003.5 841.2
ЮЗ 2 50 км дым {мгла} 3/0
[Ac lent]
+16.3 +8.5 60 +16 +17 1004.5 841.0 +19.4
ЮЗ 2 50 км ясно +12.4 +9.7 84 +11 +11 1007.7 841.6
ЮЗ 3 50 км 6/0
[Ac lent Ci]
+11.2 +8.2 82 +9 +9 1008.6 841.7
ЮЗ 1 50 км 4/0
[Ac lent]
+9.8 +8.4 91 +9 +9 1009.5 841.7
штиль 0 20 км осадки на расстоянии 9/6 600 м
[Sc Ac As]
+10.9 +8.9 87 +10 +11 1009.6 842.4 +7.9
СВ 2 20 км дым 9/6 600 м
[Cb calv Ac inh Cs]
+15.5 +9.4 67 +15 +18 1006.7 842.4
З 6 20 км гроза без осадков {туман} туман 9/9 600 м
[Cb cap]
+14.7 +9.3 70 +13 +14 1006.8 842.1
В 2 20 км дым {гроза, ливн. дождь} 8/4 600 м
[Cb calv Ci ing]
+18.8 +9.1 53 +20 +23 1003.7 841.6
ЮВ 2 20 км дым {гроза, мгла} 8/6 600 м
[Cb calv Ac As Ci]
+15.7 +9.5 67 +16 +16 1006.1 842.0 +19.5 0.0
ЮЗ 3 50 км {туман} 6/4 600 м
[Sc diur, vesp Ci fib]
+12.2 +9.7 85 +11 +11 1009.5 843.0
З 2 50 км 6/0
[Ac trans Ci]
+8.9 +8.1 95 +7 +7 1011.5 842.9
З 1 50 км 4/0
[Ac As Ci]
+7.8 +6.9 94 +7 +7 1011.9 842.6
Ю 1 50 км дым {мгла} 8/4 600 м
[Cb calv Ac lent Cc]
+10.1 +8.0 87 +10 +11 1011.1 843.2 +6.6
СВ 2 20 км дым 6/3 600 м
[Cb calv Ac trans Ci]
+16.1 +10.6 70 +16 +22 1006.9 842.9
Ю 4 20 км дым {мгла} 8/4 600 м
[Cb calv Cs]
+20.5 +10.9 54 +22 +27 комфорт 1002.6 841.5
ЮЗ 4 20 км дым {мгла} 8/5 600 м
[Sc diur, vesp Ci]
+18.7 +9.2 54 +19 +21 1002.9 840.9
ЮЗ 6 50 км в посл. час ливневой дождь {гроза} 9/9 600 м
[Cb cap]
+17.6 +11.8 69 +17 +17 1004.4 841.6 +21.8 0.0
Ю 4 50 км 3/0
[Ac lent Ci fib]
+13.8 +10.6 81 +12 +12 1008.0 842.6
ЮЗ 4 50 км 8/0
[Ac lent Ci]
+11.7 +9.0 83 +10 +10 1009.1 842.4
З 3 50 км 9/6 600 м
[Sc Ac As]
+10.6 +9.1 90 +8 +8 1009.8 842.4
З 1 50 км 8/0
[Ac lent Ci]
+11.0 +9.6 91 +11 +12 1010.0 842.8 +9.1
С 1 50 км 8/5 1000 м
[Cu med, cong Ac trans]
+17.1 +10.3 64 +18 +22 1006.4 843.0
СВ 3 50 км 6/6 600 м
[Cb calv]
+19.2 +12.1 63 +21 +25 комфорт 1003.6 841.7
С 3 50 км 9/4 600 м
[Sc Ac lent]
+19.2 +10.9 59 +20 +22 1003.5 841.6
С 1 50 км 9/5 600 м
[Cb calv Ac lent Ci fib]
+18.3 +12.3 68 +20 +20 1004.1 841.7 +20.1
ЮЗ 3 50 км 6/0
[Ac lent Ci]
+13.3 +9.9 80 +12 +12 1008.1 842.4
ЮЗ 4 50 км 3/0
[Ci]
+9.8 +8.5 92 +7 +7 1009.5 841.7
ЮЗ 3 50 км ясно +9.4 +7.0 85 +7 +7 1009.5 841.5
ЮЗ 4 50 км ясно +11.7 +8.2 79 +10 +11 1008.4 841.8 +8.1
Ю 2 50 км 4/4 1000 м
[Cu med, cong]
+18.7 +10.5 59 +20 +27 1003.3 841.2
С 4 50 км 8/5 1000 м
[Cu med, cong Ci fib]
+22.3 +9.3 43 +24 +28 комфорт 999.2 839.6
З 2 50 км 9/8 600 м
[Cb calv Ci ing]
+20.4 +10.7 54 +23 +24 комфорт 999.5 838.9
ЮЗ 2 50 км 6/4 600 м
[Sc diur, vesp Ci fib]
+19.1 +10.4 57 +21 +21 комфорт 1000.7 839.2 +23.0
ЮЗ 3 50 км 3/0
[Ci]
+14.4 +11.2 81 +13 +13 1004.3 839.8
ЮЗ 2 н/о гроза, ливневой дождь 10/10 600 м
[Cb cap]
+12.4 +9.7 84 +11 +11 1006.3 840.4
ЮЗ 2 50 км {гроза} 8/5 600 м
[Sc diur, vesp Ci fib]
+12.5 +10.2 86 +12 +12 1006.3 840.5
ЮЗ 4 50 км {гроза} 9/8 600 м
[Sc Ac lent]
+14.1 +10.0 76 +13 +13 1006.3 841.3 +11.7 4
ЮЗ 4 50 км 8/5 1000 м
[Cu med, cong Ci]
+14.8 +11.1 78 +14 +17 1005.8 841.3
З 6
{13}
50 км гроза без осадков 8/8 600 м
[Cb cap]
+17.1 +8.6 57 +16 +17 1003.4 840.5
С 4
{15}
50 км {гроза, ливн. дождь} 8/5 600 м
[Sc diur, vesp Cs]
+19.8 +8.7 49 +21 +23 комфорт 1000.6 839.5
СВ 6
{12}
50 км {гроза} 8/6 600 м
[Sc diur, vesp Ac As Ci]
+16.6 +10.3 66 +16 +16 1004.1 840.8 +20.8 5
ЮЗ 2 50 км 3/0
[Ac cuf]
+11.7 +9.8 88 +11 +11 1008.9 842.2
ЮЗ 2 50 км 3/0
[Ac lent]
+10.2 +9.0 92 +9 +9 1010.3 842.6
ЮЗ 2 50 км 1/0
[Ac lent]
+8.3 +7.7 96 +6 +6 1012.0 843.0
СЗ 1 50 км 4/3 600 м
[Cb calv Ac As]
+11.6 +9.5 87 +11 +13 1010.5 843.5 +7.7
СВ 4 50 км 4/4 1000 м
[Cu med, cong]
+16.1 +9.8 66 +15 +20 1007.4 843.3
В 2 50 км 6/6 600 м
[Cb calv]
+21.1 +9.6 48 +22 +28 комфорт 1003.3 842.4
В 4 50 км 5/5 600 м
[Cb calv]
+21.2 +10.1 49 +23 +25 комфорт 1002.3 841.6
В 3 50 км 9/8 600 м
[Sc diur, vesp Ac As Cs]
+17.3 +10.7 65 +17 +17 1005.5 842.3 +22.2
С 3 50 км 9/8 600 м
[Sc Ac lent]
+14.9 +11.7 81 +14 +14 1007.3 842.6
З 3 н/о ливневой дождь 10/10 600 м
[Cb cap]
+12.5 +11.8 95 +11 +11 1008.5 842.3
Местоположение метеостанции Эрдэнэмандал (Монголия): широта 48.53 долгота 101.38 высота над уровнем моря 1509 м.
В архиве по умолчанию представлена погода в Эрдэнэмандале за последнюю неделю. Архивные данные за месяц целиком и за предыдущие месяцы, начиная с января 2011 года, Вы можете получить, выбрав интересующий диапазон дат из раскрывающегося списка и нажав кнопку "Найти!".
*Определитесь, кто Вы:
Внимание! Время в таблицах - всемирное. Для получения местного времени необходимо прибавить поправку, которая равна 8 ч.
Смотрите также архив погоды в соседних городах и на ближайших метеорологических станциях:
Партнеры нашего сайта:      
Пояснения к столбцам:
  • Ветер - указаны скорость ветра в м/с - средняя за 10 мин, порывы в срок и между сроками (в фигурных скобках) и направление, откуда дует ветер: С - северный,
  • СВ - северо-восточный, В - восточный, ЮВ - юго-восточный, Ю - южный, ЮЗ - юго-западный, З - западный, СЗ - северо-западный.
  • Видимость - горизонтальная дальность видимости в метрах или километрах. При видимости от 1 до 10 км при отсутствии осадков обычно наблюдается дымка, при ухудшении видимости до 1 км и менее - туман. В сухую погоду видимость может ухудшаться дымом, пылью или мглою.
  • Явления - указаны атмосферные явления, наблюдавшиеся в срок или в последний час перед сроком; фигурными скобками обозначены явления, наблюдавшиеся между сроками (за 1-3 часа до срока); квадратными скобками обозначены град или гололедные отложения с указанием их диаметра в мм.
  • Облачность - указаны через наклонную черту общая и нижняя облачность в баллах и высота нижней границы облаков в метрах; квадратными скобками обозначены формы облаков: Ci - перистые, Cs - перисто-слоистые, Cc - перисто-кучевые, Ac - высококучевые, As - высокослоистые, Sc - слоисто-кучевые, Ns - слоисто-дождевые, Cu - кучевые, Cb - кучево-дождевые. Подробнее классификацию облаков см. в Атласе облаков (PDF).
  • T - Температура воздуха - температура, измеренная на высоте 2 м над землей.
  • Td - Температура точки росы - температура, при понижении до которой содержащийся в воздухе водяной пар достигнет насыщения.
  • f - Относительная влажность воздуха - влажноcть воздуха, измеренная на высоте 2 м над землей.
  • Te - Эффективная температура - температура, которую ощущает одетый по сезону человек в тени. Характеристика душности погоды. При расчете учитывается влияние влажности воздуха и скорости ветра на теплоощущения человека.
  • Tes - Эффективная температура на солнце - температура, которую ощущает человек, с поправкой на солнечный нагрев. Характеристика знойности погоды. Зависит от высоты солнца над горизонтом, облачности и скорости ветра. Ночью, в пасмурную погоду, а также при ветре 12 м/с и более поправка равна нулю.
  • P - Атмосферное давление - приведенное к уровню моря атмосферное давление.
  • Po - Атмосферное давление - измеренное на уровне метеостанции атмосферное давление.
  • Tmin - Минимальная температура - минимум температуры воздуха на высоте 2 м над землей.
  • Tmax - Максимальная температура - максимум температуры воздуха на высоте 2 м над землей.
  • R - Количество осадков - Количество выпавших осадков за период времени, мм. При наведении курсора мыши на число - период времени, за который выпало указанное количество осадков.
  • R24 - Количество осадков - Количество выпавших осадков за 24 часа, мм.
  • S - Снежный покров - Высота снежного покрова, см. При наведении курсора мыши на число - состояние снежного покрова и степень покрытия местности в баллах.